Location: Ferintosh
(52.7647°N, 112.9692°W)
Time: 21:26:05
(UTC+00:00)

A-11 Canister half - Pass Details

Date: 20 May 2024
Orbit: 1524 x 1683 km, 47.3° (Epoch: 19 June)

Event Time Altitude Azimuth Distance (km) Brightness Sun altitude
Rises 11:54:17 0° 286° (WNW) 4,815 11.2 2.7°
Reaches altitude 10° 11:57:55 10° 275° (W) 3,852 10.6 3.2°
Maximum altitude 12:05:44 28° 222° (SW) 2,732 9.9 4.2°
Drops below altitude 10° 12:13:43 10° 169° (S) 3,923 11.0 5.3°
Sets 12:17:29 0° 158° (SSE) 4,919 11.6 5.8°
